Location: Bailleul
(50.3375°N, 2.8513°E)
Time: 04:56:20
(UTC+00:00)

Cosmos 841 Rocket - Pass Details

Date: 19 April 2021
Orbit: 747 x 772 km, 74.0° (Epoch: 09 May)

Event Time Altitude Azimuth Distance (km) Brightness Sun altitude
Rises 22:45:23 0° 333° (NNW) 3,240 8.0 -26.7°
Reaches altitude 10° 22:47:49 10° 329° (NNW) 2,306 6.9 -26.8°
Enters shadow 22:52:43 56° 262° (W) 905 3.8 -27.0°
